Temp
-11 -11 -11 -11 -11 -11 -12 -12 -12 -12 -13 -13 -13 -13 -13 -13 -13 -14 -14 -13 -13 -13 -13 -13 -13 -13 -13 -13 -13 -13 -13 -13
-13 -11 -11 -12 -12 -11 -11 -12 -12 -12 -13 -13 -13 -14 -14 -14 -14 -14 -14 -14 -14 -13 -14 -14 -14 -13 -13 -14 -14 -14 -14 -13
-13 -12 -12 -12 -12 -11 -12 -12 -13 -13 -14 -14 -13 -14 -14 -14 -14 -14 -14 -14 -14 -14 -14 -14 -14 -14 -14 -14 -14 -14 -13 -13
-13 -13 -12 -11 -13 -12 -12 -12 -13 -13 -14 -14 -14 -14 -14 -14 -14 -15 -15 -15 -15 -14 -14 -14 -14 -14 -14 -14 -14 -14 -14 -14
-13 -14 -12 -11 -13 -12 -12 -12 -13 -13 -13 -13 -13 -14 -14 -14 -15 -15 -15 -15 -15 -15 -15 -15 -14 -14 -14 -14 -14 -14 -14 -14
-12 -13 -13 -13 -12 -13 -13 -13 -13 -13 -13 -13 -14 -14 -14 -14 -14 -15 -15 -15 -15 -15 -15 -14 -14 -14 -14 -14 -14 -14 -14 -15
-13 -14 -14 -12 -12 -13 -13 -13 -13 -13 -14 -14 -14 -13 -13 -14 -14 -14 -14 -15 -15 -15 -14 -14 -14 -14 -14 -14 -14 -14 -14 -15
-13 -14 -14 -13 -13 -13 -13 -14 -14 -14 -14 -14 -14 -14 -14 -14 -14 -14 -14 -14 -14 -14 -14 -14 -14 -14 -14 -14 -14 -14 -14 -15
-14 -13 -14 -14 -13 -13 -14 -14 -14 -14 -14 -14 -14 -14 -14 -14 -14 -15 -14 -14 -14 -14 -14 -14 -14 -14 -14 -14 -14 -14 -14 -15
-14 -14 -14 -14 -14 -13 -14 -14 -14 -14 -14 -15 -15 -15 -15 -15 -14 -14 -15 -14 -14 -14 -14 -14 -14 -14 -14 -14 -14 -15 -15 -15
-14 -14 -15 -14 -14 -15 -14 -14 -14 -14 -14 -14 -14 -15 -15 -15 -15 -14 -14 -14 -14 -14 -14 -14 -14 -14 -14 -14 -14 -15 -16 -16
-14 -15 -15 -15 -15 -15 -15 -15 -15 -15 -14 -14 -15 -14 -14 -15 -15 -15 -15 -15 -14 -14 -14 -14 -14 -14 -15 -15 -16 -16 -16 -16
-15 -15 -15 -16 -16 -16 -15 -15 -16 -15 -15 -15 -15 -15 -15 -15 -15 -15 -15 -15 -15 -15 -15 -15 -15 -16 -16 -16 -16 -16 -16 -16
-16 -17 -16 -16 -16 -16 -16 -16 -16 -16 -15 -15 -16 -15 -16 -16 -16 -16 -16 -16 -16 -16 -16 -16 -16 -16 -16 -17 -16 -16 -17 -17
-18 -18 -18 -18 -17 -17 -17 -17 -16 -16 -16 -16 -16 -16 -17 -17 -17 -17 -17 -17 -17 -16 -17 -17 -17 -17 -17 -17 -17 -18 -18 -18
-18 -18 -19 -19 -18 -19 -19 -18 -17 -17 -17 -17 -17 -17 -17 -18 -17 -18 -18 -18 -18 -18 -18 -18 -18 -18 -18 -18 -18 -18 -18 -18
-19 -20 -20 -20 -19 -19 -19 -19 -18 -18 -17 -18 -18 -19 -19 -18 -18 -18 -18 -18 -19 -19 -19 -19 -18 -19 -18 -18 -18 -18 -19 -18
-19 -21 -21 -20 -19 -19 -20 -20 -20 -19 -19 -19 -19 -20 -20 -19 -19 -19 -19 -19 -19 -19 -19 -19 -19 -19 -19 -19 -18 -18 -18 -18
-22 -23 -24 -21 -21 -21 -22 -21 -21 -21 -20 -20 -20 -20 -20 -19 -19 -19 -19 -19 -19 -19 -18 -18 -18 -18 -19 -19 -19 -19 -18 -19
Height
5746 5747 5747 5752 5748 5754 5756 5756 5758 5761 5761 5765 5765 5768 5768 5771 5771 5770 5769 5769 5768 5768 5769 5768 5768 5768 5768 5767 5768 5768 5767 5766
5733 5735 5734 5739 5736 5740 5749 5747 5749 5750 5751 5754 5755 5759 5758 5760 5760 5760 5760 5760 5759 5759 5760 5758 5759 5759 5759 5759 5759 5758 5758 5757
5729 5719 5724 5732 5729 5725 5736 5737 5737 5740 5740 5744 5745 5747 5747 5748 5749 5752 5750 5750 5750 5749 5750 5748 5749 5750 5749 5750 5748 5748 5747 5747
5716 5713 5710 5718 5718 5715 5721 5726 5727 5729 5730 5731 5733 5736 5735 5737 5739 5742 5740 5740 5739 5739 5740 5739 5740 5740 5739 5739 5738 5738 5737 5737
5706 5705 5698 5703 5708 5706 5708 5713 5715 5717 5718 5718 5720 5723 5724 5726 5726 5729 5728 5729 5728 5728 5728 5730 5729 5729 5729 5728 5728 5728 5728 5726
5697 5694 5693 5692 5697 5694 5697 5702 5702 5704 5706 5707 5708 5710 5712 5714 5715 5717 5716 5717 5717 5718 5718 5719 5719 5720 5719 5718 5718 5717 5716 5716
5689 5686 5679 5680 5683 5686 5685 5688 5690 5693 5695 5695 5696 5699 5701 5703 5704 5703 5705 5706 5706 5706 5707 5707 5707 5708 5709 5708 5707 5706 5706 5705
5677 5676 5670 5670 5670 5675 5677 5676 5677 5680 5683 5684 5685 5688 5689 5690 5692 5693 5693 5694 5695 5695 5696 5695 5696 5697 5696 5696 5695 5695 5693 5692
5660 5663 5660 5656 5661 5662 5665 5666 5668 5670 5672 5673 5673 5675 5677 5678 5679 5681 5683 5683 5684 5684 5684 5683 5684 5685 5683 5683 5682 5680 5680 5678
5641 5646 5646 5646 5645 5648 5652 5653 5655 5658 5661 5661 5661 5662 5665 5666 5665 5667 5670 5671 5672 5673 5672 5671 5670 5670 5671 5668 5667 5667 5665 5664
5624 5628 5632 5633 5634 5636 5638 5638 5640 5643 5646 5648 5648 5647 5648 5651 5651 5654 5656 5657 5658 5659 5658 5658 5659 5658 5654 5655 5655 5653 5652 5650
5609 5612 5615 5618 5619 5622 5624 5625 5626 5628 5630 5634 5634 5633 5634 5636 5638 5641 5643 5642 5643 5645 5643 5643 5640 5642 5641 5643 5641 5638 5637 5636
5597 5597 5600 5604 5605 5608 5611 5612 5613 5613 5615 5619 5622 5622 5622 5623 5624 5626 5627 5628 5630 5630 5629 5630 5630 5629 5628 5629 5627 5625 5624 5621
5582 5585 5587 5588 5592 5592 5595 5599 5599 5601 5603 5605 5609 5609 5609 5611 5612 5613 5614 5616 5616 5616 5616 5615 5615 5615 5615 5614 5612 5610 5608 5607
5566 5569 5573 5575 5575 5578 5582 5583 5587 5588 5588 5590 5593 5596 5598 5599 5601 5601 5601 5602 5602 5602 5600 5600 5600 5600 5599 5598 5597 5595 5594 5593
5553 5557 5559 5564 5561 5565 5565 5569 5573 5574 5575 5575 5577 5579 5581 5585 5588 5590 5590 5590 5590 5589 5588 5588 5586 5586 5586 5585 5583 5582 5581 5577
5541 5540 5543 5547 5551 5548 5551 5554 5556 5558 5560 5560 5562 5565 5567 5569 5572 5575 5577 5576 5576 5576 5575 5574 5574 5574 5573 5571 5569 5567 5565 5561
5527 5525 5525 5530 5533 5535 5538 5539 5538 5540 5543 5546 5547 5550 5553 5556 5557 5558 5560 5560 5560 5560 5560 5561 5560 5559 5557 5555 5553 5551 5548 5544
5510 5510 5510 5512 5516 5519 5520 5523 5526 5525 5525 5531 5532 5535 5539 5543 5541 5541 5542 5542 5542 5542 5544 5544 5544 5541 5539 5537 5536 5534 5531 5529
Wind_Speed
42 36 42 43 51 48 45 49 50 50 50 46 46 41 44 41 43 43 44 42 41 40 38 39 37 39 42 44 44 43 44 43
43 41 41 37 47 48 43 46 46 49 49 47 45 42 46 45 47 48 45 45 43 41 38 40 39 40 43 45 44 44 44 42
40 52 46 39 46 50 42 45 47 48 51 47 51 47 50 49 51 47 49 46 42 40 40 41 41 38 41 42 42 42 43 43
44 49 53 44 47 56 50 47 47 48 52 54 54 54 54 52 51 48 49 45 46 46 44 43 41 40 42 44 44 44 44 45
42 45 52 44 38 48 51 48 48 51 55 57 57 56 57 56 54 51 52 50 50 49 48 46 46 45 44 44 45 45 44 44
41 46 44 43 31 43 46 48 50 51 54 58 58 59 59 58 56 54 54 53 50 50 50 50 53 49 47 44 45 46 46 45
35 35 44 46 41 34 40 39 43 46 47 52 54 56 57 57 57 60 56 53 53 55 56 56 51 51 50 47 47 50 51 51
43 38 42 45 45 35 37 42 42 43 45 46 47 50 53 53 54 57 56 56 56 56 58 58 57 56 55 53 53 53 55 55
52 47 45 49 47 44 40 42 39 43 43 43 46 48 51 51 52 52 52 51 55 61 59 58 59 59 60 59 59 60 62 62
57 49 48 48 45 48 48 48 45 48 47 46 50 52 54 56 56 55 53 56 54 56 60 65 64 61 62 67 65 61 60 55
57 57 48 48 52 51 49 49 49 50 51 53 56 56 58 60 61 60 61 64 64 54 61 58 59 63 68 61 59 59 56 58
58 51 49 50 49 49 54 57 56 52 52 55 57 56 57 59 62 62 62 63 62 59 59 60 54 63 52 58 60 60 61 61
57 54 55 53 48 48 58 57 54 53 56 55 56 57 54 57 57 62 63 60 61 61 62 63 63 61 62 60 59 56 52 54
62 60 60 57 59 54 51 52 56 58 62 58 53 57 51 45 51 54 53 52 53 56 58 59 60 61 62 58 59 60 53 56
48 49 41 46 57 50 55 55 53 59 56 55 54 48 47 44 47 46 45 46 52 61 56 56 56 56 57 58 58 54 52 55
77 70 69 52 52 40 36 50 57 53 56 52 58 61 51 46 45 44 42 45 48 51 52 52 51 50 52 52 53 53 55 57
76 73 70 63 68 70 69 62 52 49 51 49 48 47 47 47 46 43 41 43 46 47 48 49 49 48 49 56 58 54 54 62
80 77 74 75 73 74 70 63 58 58 54 52 49 49 47 49 51 51 49 48 50 52 53 50 51 51 53 55 57 66 70 68
77 65 61 80 77 76 63 63 62 60 68 65 61 60 57 52 53 54 55 55 54 55 58 58 54 55 56 58 60 63 67 70
Wind_Direction
269 260 261 257 256 249 248 251 257 258 259 260 263 264 266 271 272 275 277 275 277 280 277 277 276 276 275 274 275 277 278 280
271 262 257 257 257 257 251 252 254 255 256 257 260 264 267 267 268 268 276 276 278 277 275 272 272 273 276 276 277 277 278 278
263 270 260 256 259 261 253 252 251 251 254 254 262 263 264 264 266 272 274 275 275 273 269 268 270 274 275 277 275 274 275 277
262 264 271 261 252 257 255 251 250 251 253 253 256 259 262 264 268 271 270 271 269 267 268 269 273 273 274 274 274 275 277 278
254 254 264 266 251 252 253 254 255 254 253 253 255 257 260 261 261 261 264 265 266 267 267 269 271 271 273 275 278 277 277 277
275 265 270 271 260 257 256 253 254 254 256 255 255 256 259 261 260 259 261 261 264 265 268 271 273 272 275 279 280 280 279 282
275 255 259 263 262 252 261 260 257 256 260 261 260 260 262 262 261 260 260 259 260 265 269 278 269 275 276 280 285 284 283 283
266 262 253 257 261 252 251 252 254 256 256 259 261 262 262 262 262 262 265 260 258 263 271 278 269 279 277 280 283 284 288 289
253 260 252 253 251 257 248 251 252 251 252 255 256 258 260 261 263 261 261 265 261 262 272 276 274 277 274 278 282 283 287 288
244 246 246 241 240 249 256 255 257 251 248 251 252 253 253 255 257 257 258 261 263 264 270 274 267 269 275 278 278 284 285 290
239 244 244 249 260 267 258 248 254 253 254 253 252 248 248 248 251 253 255 257 259 265 264 269 273 275 270 281 278 283 288 291
240 240 255 260 259 260 251 247 256 258 259 255 251 253 254 253 253 255 256 259 259 261 262 264 271 270 283 281 285 288 290 290
266 266 265 262 255 259 252 257 260 255 253 254 257 258 260 259 259 262 263 261 265 266 267 267 270 276 281 282 287 288 290 293
255 257 254 256 258 251 252 260 252 253 255 254 255 259 264 270 266 264 265 267 270 271 274 274 273 274 277 278 279 286 290 292
252 244 252 254 243 252 251 250 249 251 250 258 257 258 258 271 279 282 282 279 275 273 276 275 276 279 281 282 285 285 282 286
267 271 274 267 262 261 259 250 249 247 250 248 248 251 255 280 280 282 282 277 275 274 275 278 280 283 283 281 278 279 280 286
267 275 274 274 274 281 281 281 268 252 247 258 266 273 274 278 279 277 273 271 272 277 281 284 279 279 278 276 274 275 280 280
270 277 278 276 276 276 277 277 278 276 275 275 275 274 272 275 278 279 279 280 282 283 284 280 277 277 274 270 270 272 271 274
274 281 282 279 277 278 284 282 284 286 282 283 285 280 278 279 280 279 281 281 281 282 284 285 277 268 268 270 269 272 273 276